Orbital Elements at Epoch 2459200.5 (2020-Dec-17.0) TDB
Reference: JPL 20 (heliocentric ecliptic J2000)
Element | Value | Uncertainty (1-sigma) | Units |
e | .1821381011512455 | 4.9641e-08 | |
a | 2.968026186130351 | 2.0213e-08 | au |
q | 2.427435532421395 | 1.3778e-07 | au |
i | 1.867180689017424 | 4.3461e-06 | deg |
node | 158.7383592492305 | 0.00014347 | deg |
peri | 199.3320803012026 | 0.00014402 | deg |
M | 119.7939991323169 | 1.3781e-05 | deg |
tp | 2458579.012236915667 (2019-Apr-05.51223692) | 6.9736e-05 | TDB |
period | 1867.669468678773 5.11 | 1.9079e-05 5.224e-08 | d yr |
n | .1927535926657682 | 1.9691e-09 | deg/d |
Q | 3.508616839839306 | 2.3895e-08 | au |
|
| | Orbit Determination Parameters
Additional Information
|